FW7227 Weather Reports


time (UTC)temp
C
wind
direction
speed
KPH
gust
KPH
rain 1hr
cm
rain 24hr
cm
rain mn
cm
humidity
%
barometer
mb
20260905141059 18 263 22.5 35.4 0.00 1.24 0.20 72 1018.1
20260905140600 18 250 16.1 33.8 0.00 1.24 0.20 74 1018.1
20260905140058 18 281 19.3 40.2 0.00 1.24 0.20 73 1018.2
20260905135558 18 360 22.5 40.2 0.00 1.60 0.20 74 1018.1
20260905135056 18 360 14.5 43.5 0.00 1.60 0.20 77 1018.2
20260905134603 17 360 22.5 43.5 0.05 1.60 0.20 76 1018.2
20260905134056 17 360 24.1 40.2 0.08 1.60 0.20 77 1018.2
20260905133557 17 360 19.3 40.2 0.18 1.60 0.20 78 1018.2
20260905133059 17 360 16.1 35.4 0.18 1.60 0.20 80 1018.3
20260905132557 17 360 20.9 35.4 0.18 1.60 0.20 82 1018.2
20260905132057 16 360 16.1 35.4 0.20 1.60 0.20 83 1018.1
20260905131632 16 360 17.7 33.8 0.20 1.60 0.20 85 1018.1
20260905131058 16 360 16.1 30.6 0.20 1.60 0.20 86 1018.1
20260905130558 15 360 12.9 24.1 0.20 1.60 0.20 87 1018.1
20260905130108 15 360 12.9 24.1 0.20 1.60 0.20 88 1018.2
20260905125556 15 360 11.3 33.8 0.20 1.60 0.20 89 1018.1
20260905125056 15 360 11.3 33.8 0.20 1.60 0.20 89 1018.1
20260905124607 15 360 14.5 33.8 0.15 1.55 0.15 86 1018.3
20260905124056 15 360 8.0 22.5 0.13 1.52 0.13 86 1018.1
20260905123556 16 360 8.0 24.1 0.03 1.42 0.03 81 1018.0
20260905123111 16 360 14.5 27.4 0.03 1.42 0.03 79 1017.7
20260905122557 16 360 12.9 27.4 0.00 1.40 0.00 77 1017.7
20260905122056 17 360 8.0 32.2 0.00 1.40 0.00 74 1017.5
20260905121558 17 360 17.7 32.2 0.00 1.40 0.00 71 1017.5
20260905121057 18 360 19.3 32.2 0.00 1.40 0.00 68 1017.3
20260905120557 18 360 17.7 30.6 0.00 1.40 0.00 68 1017.2
20260905120107 18 360 16.1 30.6 0.00 1.40 0.00 67 1017.2
20260905115556 19 258 16.1 32.2 0.00 1.40 0.00 67 1017.2
20260905115056 18 360 14.5 32.2 0.00 1.40 0.00 69 1017.2
20260905114606 18 360 16.1 32.2 0.00 1.40 0.00 71 1017.3
20260905114057 18 288 14.5 25.7 0.00 1.40 0.00 73 1017.3
20260905113558 17 233 12.9 27.4 0.00 1.40 0.00 74 1017.4
20260905113110 18 259 14.5 32.2 0.00 1.40 0.00 71 1017.4
20260905112557 18 256 19.3 32.2 0.00 1.40 0.00 70 1017.1
20260905112056 18 298 17.7 32.2 0.00 1.40 0.00 66 1017.1
20260905111606 18 236 16.1 32.2 0.00 1.40 0.00 66 1017.0
20260905111056 18 280 16.1 32.2 0.00 1.40 0.00 67 1017.2
20260905110557 18 281 17.7 41.8 0.00 1.40 0.00 67 1017.1
20260905110104 18 301 17.7 41.8 0.00 1.40 0.00 66 1017.0
20260905105556 18 239 14.5 38.6 0.00 1.40 0.00 67 1017.0
20260905105058 18 298 16.1 37.0 0.00 1.40 0.00 67 1017.1
20260905104604 18 240 16.1 37.0 0.00 1.40 0.00 66 1017.1
20260905104057 18 263 19.3 37.0 0.00 1.40 0.00 66 1017.2
20260905103558 18 242 22.5 33.8 0.00 1.40 0.00 66 1017.1
20260905103102 18 241 14.5 27.4 0.00 1.40 0.00 67 1017.1
20260905102556 18 244 14.5 35.4 0.00 1.40 0.00 67 1017.1
20260905102058 18 233 20.9 35.4 0.00 1.40 0.00 66 1017.1
20260905101622 18 238 22.5 33.8 0.00 1.40 0.00 67 1017.0
20260905101059 18 246 19.3 35.4 0.00 1.40 0.00 67 1017.1
20260905100557 18 279 17.7 35.4 0.00 1.40 0.00 67 1017.0
20260905100059 18 230 20.9 35.4 0.00 1.40 0.00 67 1017.0
20260905095557 18 246 16.1 33.8 0.00 1.40 0.00 67 1017.0
20260905095056 18 246 16.1 33.8 0.00 1.40 0.00 67 1016.8
20260905094607 18 252 19.3 38.6 0.00 1.40 0.00 67 1017.0
20260905094056 18 242 17.7 40.2 0.00 1.40 0.00 69 1017.0
20260905093556 18 238 22.5 40.2 0.00 1.40 0.00 68 1017.0
20260905093103 18 234 16.1 38.6 0.00 1.40 0.00 72 1016.9
20260905092556 18 270 16.1 38.6 0.00 1.40 0.00 70 1016.9
20260905092055 18 258 20.9 35.4 0.00 1.40 0.00 71 1016.9
20260905091629 18 246 20.9 35.4 0.00 1.40 0.00 71 1016.8
20260905091056 17 249 11.3 35.4 0.00 1.40 0.00 73 1016.7
20260905090556 17 234 17.7 35.4 0.00 1.40 0.00 73 1016.6
20260905085557 17 259 12.9 38.6 0.00 1.40 0.00 76 1016.7
20260905085057 17 292 16.1 38.6 0.00 1.40 0.00 76 1016.8
20260905084619 17 242 19.3 37.0 0.00 1.40 0.00 75 1016.9
20260905084056 17 257 17.7 35.4 0.00 1.40 0.00 75 1016.9
20260905083556 17 286 16.1 32.2 0.00 1.40 0.00 74 1016.8
20260905083101 17 272 14.5 37.0 0.00 1.40 0.00 74 1016.7
20260905082557 17 279 16.1 37.0 0.00 1.40 0.00 73 1016.5
20260905082056 17 252 16.1 32.2 0.00 1.40 0.00 74 1016.4
20260905081559 17 224 14.5 30.6 0.00 1.40 0.00 74 1016.4
20260905081057 17 239 16.1 35.4 0.00 1.40 0.00 76 1016.4
20260905080556 17 263 17.7 35.4 0.00 1.40 0.00 76 1016.4
20260905080109 17 265 19.3 35.4 0.00 1.40 0.00 76 1016.3
20260905075559 17 268 17.7 33.8 0.00 1.40 0.00 76 1016.3
20260905075057 17 282 12.9 30.6 0.00 1.40 0.00 77 1016.2
20260905074601 16 255 14.5 30.6 0.00 1.40 0.00 77 1016.3
20260905074056 16 262 16.1 29.0 0.00 1.40 0.00 77 1016.2
20260905073556 16 252 12.9 29.0 0.00 1.40 0.00 78 1016.2
20260905073100 16 285 9.7 30.6 0.00 1.40 0.00 79 1016.1
20260905072558 16 272 16.1 30.6 0.00 1.40 0.00 78 1016.1
20260905072057 16 252 14.5 30.6 0.00 1.40 0.00 79 1016.0
20260905071605 16 246 12.9 25.7 0.00 1.40 0.00 80 1015.9
20260905071058 16 240 12.9 25.7 0.00 1.40 0.00 80 1016.0
20260905070556 16 279 12.9 25.7 0.00 1.40 0.00 81 1015.9
20260905070106 15 238 11.3 24.1 0.00 1.40 0.00 82 1015.7
20260905065556 15 248 14.5 24.1 0.00 1.40 0.00 82 1015.8
20260905065056 15 262 11.3 25.7 0.00 1.40 0.00 82 1015.8
20260905064559 15 234 14.5 27.4 0.00 1.40 0.00 83 1015.7
20260905064058 15 226 11.3 29.0 0.00 1.40 0.00 83 1015.6
20260905063557 15 240 12.9 29.0 0.00 1.40 0.00 84 1015.6
20260905063059 15 254 12.9 29.0 0.00 1.40 0.00 85 1015.5
20260905062557 14 234 11.3 29.0 0.00 1.40 0.00 85 1015.5
20260905062058 14 259 12.9 29.0 0.00 1.40 0.00 85 1015.5
20260905061618 13 221 8.0 19.3 0.00 1.40 0.00 86 1015.5
20260905061057 13 236 6.4 17.7 0.00 1.40 0.00 87 1015.5
20260905060557 13 239 8.0 20.9 0.00 1.40 0.00 87 1015.4
20260905060107 13 266 9.7 20.9 0.00 1.40 0.00 87 1015.4
20260905055558 13 236 11.3 19.3 0.00 1.40 0.00 87 1015.5
20260905055057 13 237 9.7 20.9 0.00 1.40 0.00 87 1015.5
20260905054605 13 240 8.0 20.9 0.00 1.40 0.00 88 1015.4
20260905054058 13 239 11.3 24.1 0.00 1.40 0.00 88 1015.4
20260905053558 13 238 8.0 24.1 0.00 1.40 0.00 88 1015.4
20260905053113 13 247 6.4 19.3 0.00 1.40 0.00 88 1015.4
20260905052558 13 248 11.3 19.3 0.00 1.40 0.00 88 1015.3
20260905052058 13 247 9.7 19.3 0.00 1.40 0.00 88 1015.3
20260905051605 13 254 9.7 17.7 0.00 1.40 0.00 88 1015.2
20260905051057 13 245 9.7 17.7 0.00 1.40 0.00 88 1015.2
20260905050558 13 246 9.7 17.7 0.00 1.40 0.00 88 1015.1
20260905050059 13 232 9.7 16.1 0.00 1.40 0.00 88 1015.1
20260905045557 13 246 6.4 16.1 0.00 1.40 0.00 88 1015.0
20260905045057 13 240 9.7 16.1 0.00 1.40 0.00 88 1015.0
20260905044605 13 238 8.0 17.7 0.00 1.40 0.00 87 1015.0
20260905044058 13 242 8.0 17.7 0.00 1.40 0.00 87 1015.0
20260905043558 13 240 8.0 17.7 0.00 1.40 0.00 87 1015.0
20260905043100 13 250 9.7 20.9 0.00 1.40 0.00 87 1014.9
20260905042601 13 229 11.3 22.5 0.00 1.40 0.00 87 1014.9
20260905042058 13 223 9.7 22.5 0.00 1.40 0.00 87 1014.9
20260905041611 13 269 9.7 22.5 0.00 1.40 0.00 87 1014.7
20260905041058 13 217 8.0 22.5 0.00 1.40 0.00 87 1014.7
20260905040557 13 251 9.7 20.9 0.00 1.40 0.00 87 1014.7
20260905040105 13 243 9.7 20.9 0.00 1.40 0.00 87 1014.7
20260905035558 13 246 12.9 20.9 0.00 1.40 0.00 87 1014.7
20260905035057 13 261 9.7 22.5 0.00 1.40 0.00 87 1014.7
20260905034602 13 264 8.0 22.5 0.00 1.40 0.00 87 1014.7
20260905034057 13 259 9.7 25.7 0.00 1.40 0.00 87 1014.6
20260905033558 13 251 9.7 25.7 0.00 1.40 0.00 87 1014.4
20260905033101 13 237 12.9 22.5 0.00 1.40 0.00 87 1014.4
20260905032558 13 243 11.3 22.5 0.00 1.40 0.00 87 1014.4
20260905032101 13 230 9.7 22.5 0.00 1.40 0.00 87 1014.4
20260905031604 13 255 12.9 22.5 0.00 1.40 0.00 87 1014.3
20260905031057 13 230 12.9 22.5 0.00 1.40 0.00 87 1014.3
20260905030557 13 239 9.7 24.1 0.00 1.40 0.00 86 1014.3
20260905030107 13 252 9.7 24.1 0.00 1.40 0.00 86 1014.2
20260905025558 13 266 9.7 22.5 0.00 1.40 0.00 86 1014.2
20260905025057 13 239 11.3 24.1 0.00 1.40 0.00 86 1014.2
20260905024640 13 248 9.7 24.1 0.00 1.40 0.00 86 1014.1
20260905024102 14 257 11.3 20.9 0.00 1.40 0.00 86 1014.1
20260905023558 14 265 14.5 20.9 0.00 1.40 0.00 86 1014.1
20260905023105 13 252 11.3 25.7 0.00 1.40 0.00 86 1014.1
20260905022557 13 242 11.3 25.7 0.00 1.40 0.00 86 1014.1
20260905022057 14 250 9.7 25.7 0.00 1.40 0.00 85 1014.1
20260905021605 14 231 11.3 19.3 0.00 1.40 0.00 85 1014.1
20260905021057 14 263 11.3 22.5 0.00 1.40 0.00 85 1014.1
20260905020557 14 271 11.3 22.5 0.00 1.40 0.00 85 1014.1
20260905015557 14 211 11.3 24.1 0.00 1.40 0.00 85 1014.0
20260905015059 14 243 9.7 24.1 0.00 1.40 0.00 85 1013.9
20260905014605 14 236 11.3 22.5 0.00 1.40 0.00 85 1013.8
20260905014101 14 240 12.9 24.1 0.00 1.40 0.00 85 1013.8
20260905013558 14 246 12.9 24.1 0.00 1.40 0.00 85 1013.8
20260905013059 14 209 11.3 24.1 0.00 1.40 0.00 85 1013.8
20260905012558 14 240 11.3 24.1 0.00 1.40 0.00 85 1013.8
20260905012058 14 252 11.3 24.1 0.00 1.40 0.00 85 1013.8
20260905011602 14 245 11.3 24.1 0.00 1.40 0.00 85 1013.7
20260905011057 14 244 11.3 20.9 0.00 1.40 0.00 86 1013.8
20260905010601 14 250 9.7 22.5 0.00 1.40 0.00 86 1013.7
20260905010107 14 271 11.3 22.5 0.00 1.40 0.00 85 1013.8
20260905005557 14 268 11.3 22.5 0.00 1.40 0.00 85 1013.7
20260905005058 14 242 9.7 22.5 0.00 1.40 0.00 85 1013.8
20260905004606 14 287 9.7 20.9 0.00 1.40 0.00 85 1013.8
20260905004059 14 257 12.9 22.5 0.00 1.40 0.00 85 1013.7
20260905003557 14 259 14.5 22.5 0.00 1.40 0.00 85 1013.8
20260905003115 14 244 12.9 20.9 0.00 1.40 0.00 85 1013.7
20260905002558 14 259 11.3 24.1 0.00 1.40 0.00 85 1013.8
20260905002058 14 246 12.9 24.1 0.00 1.40 0.00 85 1013.7
20260905001600 14 256 11.3 24.1 0.00 1.40 0.00 85 1013.7
20260905001057 14 236 11.3 24.1 0.00 1.40 0.00 85 1013.7
20260905000558 14 250 9.7 22.5 0.00 1.40 0.00 85 1013.6
20260905000110 14 275 11.3 22.5 0.00 1.40 0.00 85 1013.6
20260904235557 14 283 11.3 25.7 0.00 1.40 0.00 85 1013.5
20260904235057 15 254 12.9 25.7 0.00 1.40 0.00 85 1013.6
20260904234607 15 257 12.9 25.7 0.00 1.40 0.00 85 1013.3
20260904234057 15 268 11.3 22.5 0.00 1.40 0.00 85 1013.3
20260904233557 15 265 11.3 22.5 0.00 1.40 0.00 85 1013.4
20260904233104 15 279 12.9 24.1 0.00 1.40 0.00 85 1013.3
20260904232558 15 265 11.3 27.4 0.00 1.40 0.00 85 1013.3
20260904232057 15 269 9.7 27.4 0.00 1.40 0.00 85 1013.3
20260904231600 15 256 12.9 25.7 0.00 1.40 0.00 85 1013.3
20260904231101 15 270 12.9 32.2 0.00 1.40 0.00 85 1013.2
20260904230558 15 271 16.1 32.2 0.00 1.40 0.00 85 1013.2
20260904230104 15 274 11.3 29.0 0.00 1.40 0.00 85 1013.1
20260904225557 15 260 14.5 24.1 0.00 1.40 0.00 85 1013.1
20260904225057 15 265 14.5 25.7 0.00 1.40 0.00 85 1013.0
20260904224605 15 256 12.9 25.7 0.00 1.40 0.00 85 1012.9
20260904224057 15 267 9.7 24.1 0.00 1.40 0.00 86 1012.9
20260904223557 15 261 11.3 25.7 0.00 1.40 0.00 86 1012.8
20260904223109 15 254 11.3 25.7 0.00 1.40 0.00 85 1012.7
20260904222557 15 230 14.5 27.4 0.00 1.40 0.00 85 1012.7
20260904222100 15 261 12.9 27.4 0.00 1.40 0.00 85 1012.7
20260904221615 15 287 14.5 27.4 0.00 1.40 0.00 86 1012.5
20260904221058 15 277 16.1 27.4 0.00 1.40 0.00 86 1012.5
20260904220558 15 267 12.9 27.4 0.00 1.40 0.00 87 1012.5
20260904220108 15 262 16.1 27.4 0.00 1.40 0.00 87 1012.3
20260904215558 15 261 9.7 24.1 0.00 1.47 1.40 87 1012.2
20260904215057 15 281 11.3 24.1 0.00 1.47 1.40 88 1012.2
20260904214609 15 260 11.3 24.1 0.00 1.47 1.40 88 1012.1
20260904214057 15 317 12.9 24.1 0.00 1.47 1.40 88 1012.0
20260904213557 15 265 12.9 22.5 0.00 1.47 1.40 88 1011.9
20260904213101 15 256 12.9 24.1 0.00 1.47 1.40 89 1011.8
20260904212558 15 261 8.0 24.1 0.00 1.47 1.40 89 1011.7
20260904212056 15 299 11.3 24.1 0.00 1.47 1.40 89 1011.6
20260904211605 15 292 9.7 24.1 0.00 1.47 1.40 89 1011.7
20260904211057 15 267 11.3 27.4 0.00 1.47 1.40 89 1011.7
20260904210559 15 265 9.7 27.4 0.00 1.47 1.40 89 1011.6
20260904210104 15 259 14.5 27.4 0.00 1.47 1.40 89 1011.4
20260904205558 15 274 12.9 27.4 0.00 1.47 1.40 89 1011.5
20260904205057 15 277 11.3 27.4 0.00 1.47 1.40 90 1011.3
20260904204608 15 267 12.9 25.7 0.00 1.47 1.40 90 1011.2
20260904204101 15 239 14.5 25.7 0.00 1.47 1.40 90 1011.2
20260904203558 16 264 9.7 24.1 0.00 1.47 1.40 90 1011.3
20260904203102 16 265 11.3 24.1 0.00 1.47 1.40 90 1011.2
20260904202557 16 267 16.1 24.1 0.00 1.47 1.40 90 1011.1
20260904202100 16 273 11.3 27.4 0.00 1.47 1.40 90 1011.1
20260904201604 16 293 11.3 27.4 0.00 1.47 1.40 90 1011.1
20260904201057 16 265 11.3 29.0 0.00 1.47 1.40 90 1011.0
20260904200556 16 263 14.5 29.0 0.00 1.47 1.40 90 1011.0
20260904200116 16 263 12.9 29.0 0.00 1.47 1.40 90 1010.9
20260904195557 16 253 12.9 25.7 0.00 1.47 1.40 91 1010.9
20260904195058 16 271 12.9 27.4 0.00 1.47 1.40 91 1010.8
20260904194605 16 257 14.5 27.4 0.00 1.47 1.40 91 1010.7
20260904194057 16 284 14.5 25.7 0.00 1.47 1.40 91 1010.8
20260904193557 16 263 12.9 25.7 0.00 1.47 1.40 92 1010.8
20260904193101 16 244 11.3 25.7 0.00 1.47 1.40 92 1010.7
20260904192556 16 261 12.9 25.7 0.00 1.47 1.40 92 1010.8
20260904192056 16 268 11.3 22.5 0.00 1.47 1.40 92 1010.4
20260904191600 16 270 11.3 20.9 0.00 1.47 1.40 92 1010.5
20260904191057 16 277 9.7 22.5 0.00 1.47 1.40 93 1010.6
20260904190558 16 268 12.9 22.5 0.00 1.47 1.40 93 1010.6
20260904190108 16 275 12.9 25.7 0.00 1.47 1.40 93 1010.5
20260904185558 16 251 11.3 25.7 0.00 1.47 1.40 93 1010.4
20260904185057 16 295 11.3 27.4 0.00 1.47 1.40 93 1010.3
20260904184607 16 271 14.5 27.4 0.00 1.47 1.40 93 1010.2
20260904184058 16 267 14.5 27.4 0.00 1.47 1.40 93 1010.3
20260904183557 16 250 12.9 24.1 0.00 1.47 1.40 93 1010.3
20260904183101 16 252 14.5 27.4 0.00 1.47 1.40 93 1010.2
20260904182600 16 254 9.7 27.4 0.00 1.47 1.40 93 1010.3
20260904182056 16 258 16.1 25.7 0.00 1.47 1.40 93 1010.2
20260904181607 16 263 14.5 25.7 0.03 1.47 1.40 93 1009.9
20260904181057 16 269 12.9 27.4 0.05 1.47 1.40 94 1009.8
20260904180559 16 279 11.3 27.4 0.08 1.47 1.40 94 1009.9
20260904180113 16 262 16.1 27.4 0.08 1.47 1.40 94 1009.9
20260904175556 16 275 8.0 22.5 0.10 1.47 1.40 94 1009.9
20260904175057 16 277 12.9 22.5 0.10 1.47 1.40 94 1009.7
20260904174608 16 269 11.3 22.5 0.13 1.47 1.40 95 1009.5
20260904174057 16 266 12.9 25.7 0.15 1.47 1.40 95 1009.3
20260904173557 16 268 12.9 25.7 0.18 1.47 1.40 95 1009.3
20260904173105 16 279 8.0 17.7 0.18 1.47 1.40 95 1009.2
20260904172557 16 269 6.4 17.7 0.23 1.47 1.40 95 1009.1
20260904172058 16 263 8.0 14.5 0.23 1.45 1.40 95 1009.3
20260904171601 16 265 4.8 12.9 0.28 1.42 1.37 95 1009.3
20260904171056 16 273 4.8 12.9 0.36 1.40 1.35 95 1009.1
20260904170558 16 286 3.2 12.9 0.41 1.37 1.30 95 1009.2
20260904170110 16 261 3.2 12.9 0.46 1.37 1.30 94 1009.1
20260904165557 16 241 6.4 14.5 0.51 1.35 1.30 94 1008.8
20260904165057 16 265 6.4 20.9 0.56 1.35 1.30 94 1008.8
20260904164606 16 271 11.3 25.7 0.56 1.32 1.27 94 1008.8
20260904164057 16 273 9.7 25.7 0.56 1.30 1.24 94 1009.0
20260904163557 16 253 12.9 25.7 0.56 1.30 1.22 94 1009.0
20260904163109 16 290 12.9 29.0 0.58 1.27 1.22 94 1009.0
20260904162557 16 258 12.9 29.0 0.61 1.22 1.17 94 1008.9
20260904162057 16 273 14.5 29.0 0.61 1.22 1.14 93 1008.6
20260904161602 16 278 16.1 30.6 0.56 1.14 1.09 93 1008.7
20260904161056 16 249 17.7 35.4 0.46 1.04 0.99 93 1008.8
20260904160559 16 255 16.1 35.4 0.36 0.94 0.89 92 1009.0
20260904160106 16 256 16.1 32.2 0.28 0.89 0.84 92 1008.8
20260904155556 16 244 19.3 38.6 0.25 0.84 0.76 92 1008.7
20260904155058 16 273 22.5 38.6 0.20 0.79 0.74 92 1008.7
20260904154607 16 292 16.1 32.2 0.18 0.76 0.71 92 1008.5
20260904154058 16 284 16.1 32.2 0.18 0.74 0.69 92 1008.6
20260904153558 16 291 14.5 30.6 0.18 0.74 0.66 91 1008.8
20260904153106 16 250 14.5 27.4 0.18 0.66 0.61 90 1009.0
20260904152557 16 276 12.9 27.4 0.15 0.61 0.56 90 1008.9
20260904152059 16 281 16.1 30.6 0.15 0.58 0.53 90 1008.8
20260904151603 16 284 17.7 30.6 0.15 0.58 0.53 90 1008.7
20260904151056 16 267 14.5 27.4 0.15 0.58 0.53 90 1009.0
20260904150556 16 258 12.9 32.2 0.15 0.58 0.53 91 1009.0
20260904150105 16 279 12.9 38.6 0.15 0.58 0.53 90 1008.9
20260904145555 16 271 22.5 45.1 0.13 0.56 0.51 89 1009.3
20260904145057 16 280 22.5 45.1 0.13 0.56 0.51 89 1009.5
20260904144603 17 261 20.9 40.2 0.13 0.56 0.51 89 1009.6
20260904144101 17 281 11.3 40.2 0.10 0.56 0.48 90 1009.6
20260904143557 17 273 14.5 40.2 0.10 0.53 0.46 89 1009.8
20260904143100 17 270 20.9 40.2 0.08 0.48 0.43 89 1009.8
20260904142557 17 286 17.7 40.2 0.36 0.46 0.38 88 1009.5
20260904142057 17 315 14.5 32.2 0.36 0.43 0.36 89 1009.0
20260904141625 17 278 14.5 30.6 0.36 0.43 0.36 89 1009.1